Weather History for Dalhart, TX

Change the Weather History Date:

Thursday, February 28, 2013

  Actual Average Record
Temperature  
Mean Temperature 37 °F 41 °F  
Max Temperature 51 °F 56 °F 85 °F (2006)
Min Temperature 23 °F 26 °F 1 °F (1962)
Degree Days  
Heating Degree Days 28 24  
Month to date heating degree days 759 760  
Since 1 July heating degree days 3325 3643  
Cooling Degree Days 0 0  
Month to date cooling degree days 0 0  
Year to date cooling degree days 0 0  
Moisture  
Dew Point 15 °F    
Average Humidity 46    
Maximum Humidity 75    
Minimum Humidity 16    
Precipitation  
Precipitation 0.00 in 0.02 in 0.17 in (1953)
Month to date precipitation 0.63 0.40  
Year to date precipitation 0.80 0.92  
Snow  
Snow 0.00 in 0.10 in 0.30 in (1949)
Month to date snowfall 13.8 3.0  
Since 1 July snowfall 18.3 13.5  
Snow Depth 0.00 in    
Sea Level Pressure  
Sea Level Pressure 30.26 in    
Wind  
Wind Speed 7 mph (NW)    
Max Wind Speed 16 mph    
Max Gust Speed 22 mph    
Visibility 10 miles    
Events      
T = Trace of Precipitation, MM = Missing Value Source: NWS Daily Summary

Daily Weather History Graph

Daily Weather History Graph

Search for Another Location

Airport:

Trip Planner

Search our weather history database for the weather conditions in past years. The results will help you decide how hot, cold, wet, or windy it might be!

Date:

Astronomy

Feb. 28, 2013 Rise Set
Actual Time 7:21 AM CST 6:44 PM CST
Civil Twilight 6:55 AM CST 7:10 PM CST
Nautical Twilight 6:25 AM CST 7:40 PM CST
Astronomical Twilight 5:56 AM CST 8:09 PM CST
Moon 10:05 PM CST (2/28) 8:39 AM CST (2/28)
Length of Visible Light 12h 14m
Length of Day
11h 23m
Waning Gibbous, 90% of the Moon is Illuminated
Feb 28
Waning Gibbous
Mar 4
Last Quarter
Mar 11
New
Mar 19
First Quarter
Mar 27
Full

Hourly Weather History & Observations

Time (CST) Temp. Windchill Dew Point Humidity Pressure Visibility Wind Dir Wind Speed Gust Speed Precip Events Conditions
12:53 AM 28.4 °F 23.3 °F 19.4 °F 69% 30.26 in 10.0 mi NW 4.6 mph - N/A   Scattered Clouds
1:53 AM 28.9 °F 22.8 °F 19.0 °F 67% 30.27 in 10.0 mi NW 5.8 mph - N/A   Overcast
2:53 AM 26.6 °F 19.1 °F 19.4 °F 74% 30.26 in 10.0 mi WNW 6.9 mph - N/A   Clear
3:53 AM 27.0 °F 19.5 °F 18.0 °F 69% 30.27 in 10.0 mi NW 6.9 mph - N/A   Clear
4:53 AM 26.1 °F 18.4 °F 17.1 °F 69% 30.27 in 10.0 mi NW 6.9 mph - N/A   Clear
5:53 AM 24.1 °F 14.4 °F 16.0 °F 71% 30.29 in 10.0 mi NW 9.2 mph - N/A   Clear
6:53 AM 23.0 °F 13.9 °F 16.0 °F 74% 30.32 in 10.0 mi WNW 8.1 mph - N/A   Clear
7:53 AM 24.8 °F 16.9 °F 15.8 °F 69% 30.29 in 10.0 mi WNW 6.9 mph - N/A   Clear
8:53 AM 30.9 °F 23.5 °F 19.9 °F 64% 30.33 in 10.0 mi NNW 8.1 mph - N/A   Clear
9:53 AM 39.0 °F 32.8 °F 19.9 °F 46% 30.32 in 10.0 mi NNW 9.2 mph - N/A   Clear
10:53 AM 42.1 °F 36.6 °F 12.9 °F 31% 30.31 in 10.0 mi NW 9.2 mph - N/A   Clear
11:53 AM 45.0 °F 40.1 °F 12.9 °F 27% 30.30 in 10.0 mi WNW 9.2 mph 18.4 mph N/A   Clear
12:53 PM 46.9 °F - 12.0 °F 24% 30.27 in 10.0 mi WNW 11.5 mph - N/A   Clear
1:53 PM 48.0 °F - 10.0 °F 22% 30.24 in 10.0 mi NW 9.2 mph 20.7 mph N/A   Clear
2:53 PM 48.9 °F - 10.0 °F 21% 30.21 in 10.0 mi NW 9.2 mph - N/A   Clear
3:53 PM 50.0 °F - 9.0 °F 19% 30.21 in 10.0 mi North 8.1 mph - N/A   Clear
4:53 PM 50.0 °F - 8.1 °F 18% 30.21 in 10.0 mi Variable 5.8 mph - N/A   Clear
5:53 PM 50.0 °F - 7.0 °F 18% 30.20 in 10.0 mi NNE 8.1 mph - N/A   Clear
6:53 PM 44.1 °F 42.5 °F 10.0 °F 25% 30.22 in 10.0 mi ENE 3.5 mph - N/A   Clear
7:53 PM 37.9 °F 35.5 °F 12.9 °F 36% 30.22 in 10.0 mi East 3.5 mph - N/A   Clear
8:53 PM 34.0 °F 26.6 °F 18.0 °F 52% 30.23 in 10.0 mi SE 9.2 mph - N/A   Clear
9:53 PM 33.1 °F 28.7 °F 17.1 °F 52% 30.23 in 10.0 mi SSE 4.6 mph - N/A   Clear
10:53 PM 33.1 °F - 18.0 °F 54% 30.23 in 10.0 mi Calm Calm - N/A   Clear
11:53 PM 28.0 °F 20.8 °F 19.0 °F 69% 30.24 in 10.0 mi West 6.9 mph - N/A   Partly Cloudy